HYLAS 4 (43272 NORAD) Tracking and Keplerian Element Data

This shows tracking and keplerian element data for the satellite.

Feedback or suggestion? Click here.




ElementValue
Catalog43272
NameHYLAS 4
Epoch Orbit2507
Epoch Day34.74838671
Epoch Year2025
RAAN267.2291
Inclination0.0587
Eccentricity0.0001046
Argument of Perigee51.8223
Mean Anonmoly51.0216
Mean Motion1.0026903
Decay Rate-2.29E-06
L11 43272U 18033B 25034.74838671 -.00000229 00000+0 00000+0 0 9993
L22 43272 0.0587 267.2291 0001046 51.8223 51.0216 1.00269030 25071



Live tracking and technical data element details for HYLAS 4 (NORAD 43272). HYLAS 4 can be tracked NOW for your location showing map with azimuth and elevation plus other details from your city location.







IsCatalogInMostPopularTable: catalog: 43272, numindb: 998
Update: records affected: 1



GetName: 43272 HYLAS 4

Hit Count: updated at: Mon, 28 Apr 2025 09:58:48 GMT